Regional Weather Roundup
Issued by NWS

Home | Current Version | Previous Version | Text Only | Print | Product List | Glossary Off
Versions: 1 2 3 4 5 6 7 8 9 10 11 12 13 14 15 16 17 18 19 20 21 22 23 24 25 26 27

000
ASUS45 KPSR 132310
RWRAZ

ARIZONA HOURLY REGIONAL WEATHER ROUNDUP
NATIONAL WEATHER SERVICE PHOENIX AZ
400 PM MST WED DEC 13 2017

NOTE: FAIR INDICATES FEW OR NO CLOUDS BELOW 12,000 FEET WITH NO
SIGNIFICANT WEATHER AND/OR OBSTRUCTIONS TO VISIBILITY.

AZZ001>003-036-140000-
NORTHWEST ARIZONA

CITY           SKY/WX    TMP DP  RH WIND       PRES   REMARKS
BULLHEAD CITY  SUNNY     75  -2   5 N18       29.93F
KINGMAN        SUNNY     66  12  12 NE6       30.03F
$$

AZZ004>008-015-016-018-140000-
NORTH CENTRAL ARIZONA

CITY           SKY/WX    TMP DP  RH WIND       PRES   REMARKS
GRAND CANYON   SUNNY     58   9  14 W7        30.12F
WILLIAMS       SUNNY     59   3  10 W6G12     30.10S
PRESCOTT       SUNNY     64   3   9 CALM      30.06F
FLAGSTAFF      SUNNY     55   5  13 E6        30.13F
PAYSON         SUNNY     61  -4   7 SW6       30.06F
PAGE           SUNNY     50  16  25 CALM      30.05F
$$

AZZ009>014-017-140000-
NORTHEAST ARIZONA

CITY           SKY/WX    TMP DP  RH WIND       PRES   REMARKS
WINSLOW        SUNNY     54   4  13 NW5       30.09F
SAINT JOHNS    SUNNY     52   4  14 NW7       30.08F
WINDOW ROCK    CLEAR     58   4  11 S9        30.07F
SHOW LOW       SUNNY     52   3  14 N6        30.12F
$$

AZZ540-542>544-546-548-140000-
GREATER PHOENIX AREA

CITY           SKY/WX    TMP DP  RH WIND       PRES   REMARKS
PHOENIX        MOSUNNY   76  11   8 W3        29.91F
BUCKEYE        SUNNY     73  39  29 SE3       29.94S
GLENDALE       SUNNY     75   9   7 CALM      29.94F
LUKE AFB       SUNNY     74   9   8 SW3       29.91F
DEER VALLEY    SUNNY     73   5   7 SW6       29.93F
SCOTTSDALE     SUNNY     75  13   9 CALM      29.94F
MESA-FALCON    SUNNY     75  10   8 SW7       29.93F
MESA-GATEWAY   SUNNY    N/A N/A N/A W3        29.93F
CHANDLER       SUNNY     75  10   8 VRB5      29.93F
$$

AZZ539-553-140000-
SOUTHWEST MARICOPA COUNTY AND PINAL COUNTY

CITY           SKY/WX    TMP DP  RH WIND       PRES   REMARKS
CASA GRANDE    NOT AVBL
GILA BEND      SUNNY     75  12   9 N2        29.92F
$$

AZZ503-504-507>509-140000-
SOUTHEAST ARIZONA

CITY           SKY/WX    TMP DP  RH WIND       PRES   REMARKS
TUCSON         SUNNY     76  24  14 N8        29.97F
DAVIS-MONTHAN  SUNNY     75  24  15 NW7       29.95F
RYAN FIELD     SUNNY     75  25  15 NW9       29.97S
NOGALES        MOSUNNY   71  28  20 CALM      30.00S
SIERRA VISTA   SUNNY     66  27  23 S9        30.04F
DOUGLAS        SUNNY     68  27  21 SW5       30.02F
SAFFORD        SUNNY     65  16  15 CALM      30.00F
$$

AZZ532-140000-
SOUTHWEST ARIZONA

CITY           SKY/WX    TMP DP  RH WIND       PRES   REMARKS
YUMA           SUNNY     78   3   5 N7        29.93F
$$

CAZ041-043-047-048-061-525>527-560>570-140000-
SOUTHERN CALIFORNIA

CITY           SKY/WX    TMP DP  RH WIND       PRES   REMARKS
DOWNTOWN L.A.  SUNNY     77  22  13 VRB3      29.92S
L.A. AIRPORT   MOSUNNY   72  34  24 W8        29.93F
SAN DIEGO      MOSUNNY   76  18  11 NW6       29.95S
BURBANK        SUNNY     80  18  10 S8        29.93S
ONTARIO        SUNNY     82  -6   3 W10       29.94F
RIVERSIDE      SUNNY     82  12   7 W9        29.94S
PALM SPRINGS   SUNNY     78  15   9 E7        29.95F
EL CENTRO NAS  MOSUNNY   79   5   6 CALM      29.95F
IMPERIAL       SUNNY     78   5   6 CALM      29.93F
BLYTHE         SUNNY     72   9   8 S5        29.95F
NEEDLES        SUNNY     77  -1   5 N8        29.95F
$$

NVZ020-UTZ003-140000-
SOUTHERN NEVADA-UTAH

CITY           SKY/WX    TMP DP  RH WIND       PRES   REMARKS
LAS VEGAS      MOSUNNY   70   8   9 CALM      30.00F
SALT LAKE CITY CLOUDY    28  25  88 E5        30.24F FOG     WCI  23
$$

NMZ009-TXZ055-140000-
NEW MEXICO-WEST TEXAS

CITY           SKY/WX    TMP DP  RH WIND       PRES   REMARKS
ALBUQUERQUE    PTCLDY    54   4  13 CALM      30.05F
EL PASO        MOSUNNY   62  22  21 SW9       30.01F
$$


........................KEY........................
SKY/WX - SKY CONDITION/WEATHER
TMP    - TEMPERATURE IN FAHRENHEIT
DP     - DEW POINT IN FAHRENHEIT
RH     - RELATIVE HUMIDITY IN PERCENT
WIND   - DIRECTION AND SPEED IN MILES PER HOUR (MPH)
VRB    - VARIABLE WIND DIRECTION
PRES   - MEAN SEA LEVEL PRESSURE IN INCHES OF MERCURY
         F - FALLING PRESSURE   R - RISING PRESSURE
         S - STEADY PRESSURE
VSB    - VISIBILITY IN MILES
HX     - HEAT INDEX IN FAHRENHEIT
WCI    - WIND CHILL INDEX IN FAHRENHEIT
TC     - TEMPERATURE IN CELSIUS WHICH IS ALSO KNOWN AS
         TEMPERATURE IN CENTIGRADE
AFB    - AIR FORCE BASE
         LUKE AFB IS LUKE AIR FORCE BASE
         DAVIS-MONTHAN IS DAVIS-MONTHAN AIR FORCE BASE
NAS    - NAVAL AIR STATION
         EL CENTRO NAS IS EL CENTRO NAVAL AIR STATION
N/A    - NOT AVAILABLE





USA.gov is the U.S. government's official web portal to all federal, state and local government web resources and services.